Wind_Speed
25 27 33 34 28 50 54 54 41 45 45 43 49 47 36 25 25 30 26 20 21 35 36 37 40 40 37 32 30 32 33 37 37 33 30 26 30 30 29 32 32 32 30 28
27 24 25 35 44 45 53 57 55 47 45 35 43 41 40 40 38 24 28 28 21 27 31 34 39 38 41 35 31 34 34 37 36 35 35 32 31 34 32 32 33 33 31 28
13 15 23 32 57 46 45 48 44 54 47 41 47 44 32 29 35 34 27 25 35 36 35 32 33 33 39 37 34 33 33 36 34 34 36 37 33 35 38 37 37 36 33 31
12 8 9 37 30 42 47 44 42 45 39 33 37 39 31 28 26 38 35 28 33 41 40 30 25 36 34 39 34 29 32 33 33 31 35 38 40 36 37 40 40 39 36 33
6 8 22 28 19 15 40 52 42 43 40 39 23 35 44 36 28 29 29 28 27 30 36 33 31 32 36 41 38 31 32 34 34 31 32 36 39 38 39 41 42 40 38 35
13 7 6 8 17 21 30 47 49 41 34 33 28 32 37 35 25 25 26 31 28 29 34 34 32 32 37 37 38 38 32 31 29 31 33 36 36 42 39 41 41 40 38 36
30 13 13 16 20 12 19 31 36 41 37 38 40 29 25 37 31 30 31 29 29 30 26 27 33 38 39 40 43 35 34 34 34 32 33 35 38 38 42 43 43 43 41 38
28 17 13 10 9 6 10 19 31 34 28 26 26 25 22 31 36 39 32 30 32 31 32 31 30 32 36 44 40 40 37 41 38 37 37 34 39 39 41 40 45 44 43 40
30 27 20 10 2 8 20 22 21 22 24 25 26 25 24 23 27 31 34 29 30 30 32 32 32 36 36 33 32 39 41 40 39 45 43 39 36 37 43 45 38 38 43 39
33 36 35 14 6 11 19 20 21 22 22 22 20 22 22 21 23 23 25 25 26 29 33 36 37 37 38 36 39 45 47 48 44 53 47 53 46 43 44 47 46 44 41 37
37 30 42 27 11 6 15 19 21 25 26 25 21 19 17 15 15 17 18 21 23 24 24 25 31 37 44 47 51 54 54 51 56 54 53 54 51 48 45 48 47 45 42 35
42 28 36 30 16 13 15 18 17 16 18 18 17 12 11 12 10 10 11 15 15 14 19 24 35 43 47 50 53 54 57 55 57 61 59 54 49 45 45 40 38 44 41 24
37 34 26 45 28 4 10 14 16 17 15 11 9 5 5 9 11 11 12 14 17 22 24 30 37 40 43 49 52 60 64 62 58 55 63 59 49 46 47 42 36 27 24 28
18 31 29 26 21 22 17 10 9 10 9 7 3 6 10 11 12 13 16 19 20 24 29 29 31 34 37 43 53 62 63 66 69 50 58 51 38 37 37 41 48 42 33 24
30 33 33 39 18 10 17 13 10 2 5 7 6 11 13 12 12 12 16 20 22 26 26 26 25 23 25 28 30 38 71 59 50 36 61 38 45 21 23 33 36 21 30 29
31 27 26 36 17 9 11 6 7 9 8 10 12 9 9 9 4 3 6 13 15 11 14 9 12 13 18 18 26 23 25 6 53 36 27 25 24 22 25 25 26 28 24 20
31 27 22 18 14 9 5 7 9 11 14 21 9 6 5 6 8 7 8 8 6 6 5 6 7 6 11 14 13 16 19 19 19 22 20 19 20 22 23 24 23 21 16 17
25 25 27 19 19 14 11 7 9 9 8 7 4 3 4 7 6 6 6 11 9 8 8 9 6 5 6 6 10 11 11 15 16 18 21 20 19 18 17 15 16 21 27 32
16 20 22 22 20 17 13 8 9 6 3 3 2 3 8 13 16 14 15 18 14 13 11 10 9 6 4 7 4 2 3 10 12 14 12 10 11 13 16 23 26 19 17 16
27 30 32 29 26 20 18 19 19 20 18 13 7 4 3 1 1 2 3 10 15 13 14 16 17 18 15 16 15 10 9 19 19 20 21 24 28 29 26 23 23 22 17 17
29 28 28 26 24 22 20 20 16 16 15 10 9 11 6 6 7 7 2 2 3 4 8 14 11 10 6 8 14 17 21 14 9 8 6 4 12 16 16 16 19 19 19 15
28 24 25 28 20 20 14 17 16 13 12 10 11 11 11 9 8 7 5 5 7 7 8 9 7 7 6 3 3 6 9 9 9 5 12 10 9 17 18 20 22 19 14 17
28 23 18 12 15 14 11 12 10 8 12 11 9 8 9 10 12 10 9 8 6 7 8 10 10 11 11 12 11 9 8 6 6 6 5 9 11 15 16 24 19 13 16 20
22 20 17 16 8 8 8 10 7 9 7 5 6 7 8 7 13 12 12 12 12 12 13 9 10 9 6 5 6 5 2 3 5 7 12 12 12 12 8 9 10 18 22 17
18 15 12 13 11 11 10 9 7 7 7 5 7 7 5 10 13 9 8 15 7 6 13 18 18 14 12 11 4 6 9 11 10 13 12 11 9 9 13 15 11 12 14 18
15 15 16 15 13 11 12 11 10 10 9 9 9 10 10 12 13 15 16 15 14 17 19 18 18 15 12 10 16 19 17 15 12 14 15 14 14 16 15 14 15 17 19 14
15 14 12 10 10 10 11 12 14 15 15 14 12 11 11 11 11 12 14 16 18 21 22 24 21 19 19 20 18 15 14 17 20 21 22 20 18 17 19 20 24 25 24 25
Wind_Direction
266 261 254 254 240 233 232 233 228 241 241 244 249 255 255 258 253 258 251 247 247 217 232 232 242 245 235 235 236 233 233 230 227 229 231 224 217 214 213 211 212 215 218 222
289 278 270 265 245 236 241 239 242 245 243 242 250 255 258 257 252 239 237 242 234 206 228 242 232 241 235 231 233 230 234 231 228 226 228 224 220 218 217 220 222 222 228 234
304 286 261 260 240 242 244 241 235 238 246 249 248 252 257 260 249 235 235 238 235 227 230 235 233 242 231 223 231 228 228 228 227 225 226 227 223 224 224 224 225 231 234 240
294 276 234 246 257 254 246 241 242 243 246 250 250 247 251 261 248 233 239 247 229 231 220 235 240 233 227 221 222 223 226 227 228 224 224 228 225 227 227 227 228 232 235 240
245 249 269 254 260 251 231 237 243 246 241 245 249 238 244 249 244 238 230 237 245 230 229 223 241 238 228 221 226 228 224 223 225 225 227 228 230 228 228 230 232 235 237 241
233 246 241 232 238 224 224 230 234 233 228 225 236 252 242 239 234 241 243 240 244 232 223 238 230 231 221 230 226 230 228 222 225 229 231 235 236 232 232 232 235 237 241 244
233 244 270 262 237 223 200 230 226 230 236 236 240 251 241 233 237 237 240 243 237 242 245 239 238 226 232 230 225 238 237 242 238 234 234 236 236 235 235 235 236 237 240 244
224 220 250 268 231 215 203 205 217 230 226 214 216 231 235 233 233 240 237 235 232 236 239 238 238 241 240 235 239 237 245 242 242 245 240 241 237 235 235 237 237 238 239 240
201 215 217 251 167 159 170 172 181 191 186 187 195 200 210 221 225 231 236 233 234 235 236 232 238 236 237 240 245 243 240 238 247 252 245 243 242 238 236 236 239 235 236 234
206 215 211 233 215 150 162 180 174 172 178 174 174 182 191 198 208 216 221 226 228 228 230 233 239 242 246 245 240 236 242 247 245 240 236 244 251 257 243 239 238 238 239 237
195 205 211 215 218 185 182 173 171 165 166 174 176 185 193 201 216 230 244 251 256 261 261 255 246 245 243 246 246 250 248 242 245 243 242 239 240 245 246 240 235 239 240 235
207 198 207 190 195 216 202 183 176 173 168 170 176 189 207 228 252 272 279 279 281 280 265 264 263 259 256 254 251 248 247 253 243 245 243 240 240 239 247 246 234 231 224 246
207 211 208 202 225 216 147 180 172 177 173 169 181 214 286 296 295 296 305 307 284 280 286 275 271 276 270 269 261 255 248 245 247 242 248 240 231 229 231 231 229 220 274 268
176 195 193 196 219 239 210 160 137 135 122 101 32 336 305 292 294 298 309 299 296 288 289 295 299 294 286 289 271 245 242 242 241 237 243 225 230 227 238 239 241 258 256 251
175 176 186 185 173 151 188 184 215 134 31 22 0 318 305 306 299 294 293 290 289 291 298 304 304 307 328 325 320 300 230 226 210 230 216 200 214 227 268 248 234 189 202 199
154 165 172 189 170 211 211 157 247 253 303 309 307 308 292 297 297 278 278 288 290 286 300 307 308 357 2 12 1 36 206 248 213 227 236 238 232 216 174 170 166 178 193 194
156 155 149 155 189 186 151 188 223 230 226 233 254 269 17 351 341 344 317 285 280 283 289 317 336 336 45 41 56 102 132 151 160 159 157 156 160 167 185 189 188 184 195 219
165 160 152 167 178 192 197 178 141 131 131 147 167 251 305 297 294 288 296 284 282 278 281 295 307 327 1 61 83 119 132 146 148 144 146 156 162 173 176 176 205 223 255 264
148 150 149 156 157 154 157 139 129 134 152 98 64 311 288 282 279 270 273 274 273 272 266 276 282 287 21 13 350 12 162 147 162 172 172 169 177 198 237 260 256 235 220 215
121 113 109 105 106 112 118 107 99 94 90 83 66 57 54 25 60 75 253 266 258 268 271 264 256 253 262 282 288 300 262 235 253 249 246 245 261 265 263 256 216 195 202 210
100 99 103 101 99 97 82 87 84 86 85 74 61 75 103 89 73 54 42 304 330 306 304 276 291 309 315 279 266 261 253 223 214 209 215 229 237 224 213 212 200 205 193 214
86 82 87 102 85 86 86 86 78 95 81 60 51 31 33 33 34 29 16 18 48 37 12 10 16 14 17 15 257 222 215 227 229 272 293 288 261 240 214 209 214 195 207 226
77 74 70 79 86 72 73 74 79 77 77 79 59 36 24 24 25 19 10 17 9 7 9 0 350 3 26 13 9 7 332 303 276 268 267 231 275 242 221 190 190 214 221 241
78 73 65 45 84 77 47 39 39 61 62 32 23 34 20 360 349 4 21 6 10 18 21 358 330 350 3 26 13 4 77 352 303 284 285 294 305 308 303 259 246 231 236 222
40 42 35 31 33 34 37 49 32 20 20 358 328 307 311 343 325 317 337 338 315 328 340 341 347 353 317 314 235 217 266 275 287 302 301 304 303 304 304 296 270 256 269 277
18 12 9 10 6 358 346 337 321 316 314 306 309 308 309 312 313 311 313 309 303 296 299 302 308 317 320 314 321 322 306 284 251 228 225 234 245 251 246 259 274 278 276 275
19 11 359 2 355 360 357 350 341 330 324 319 312 306 304 303 300 297 297 296 296 297 300 301 302 298 291 289 289 288 290 280 280 284 291 281 271 262 250 230 249 253 246 256
Height
3027 3029 3031 3031 3035 3037 3031 3035 3039 3045 3050 3058 3061 3065 3072 3076 3079 3079 3081 3081 3083 3087 3093 3099 3103 3107 3112 3115 3120 3124 3128 3129 3132 3136 3140 3143 3146 3150 3153 3157 3161 3165 3167 3169
3017 3024 3026 3022 3021 3018 3021 3028 3034 3040 3040 3051 3056 3060 3063 3067 3071 3072 3073 3075 3076 3082 3088 3090 3095 3099 3104 3109 3113 3116 3121 3122 3126 3130 3133 3137 3140 3144 3148 3151 3154 3158 3160 3163
3013 3019 3019 3014 2997 3014 3018 3022 3026 3025 3034 3044 3049 3052 3055 3058 3059 3063 3068 3071 3073 3076 3081 3086 3089 3093 3096 3102 3106 3109 3113 3116 3118 3122 3126 3129 3132 3136 3140 3143 3147 3149 3151 3154
3014 3015 3013 2989 3005 3011 3013 3017 3020 3023 3030 3035 3041 3046 3047 3050 3052 3056 3061 3064 3068 3071 3075 3079 3084 3085 3090 3095 3098 3102 3106 3108 3110 3113 3117 3121 3124 3128 3131 3135 3138 3141 3143 3146
3013 3008 2998 2996 3004 3003 3003 3006 3014 3017 3023 3029 3033 3037 3036 3042 3047 3050 3054 3059 3062 3065 3070 3073 3077 3081 3083 3087 3092 3095 3098 3101 3104 3107 3110 3112 3115 3120 3124 3127 3130 3133 3136 3139
3008 3005 2998 2992 2994 2993 2996 2994 3001 3008 3014 3022 3027 3025 3030 3037 3042 3046 3050 3054 3057 3060 3063 3065 3070 3075 3078 3081 3085 3088 3092 3096 3099 3101 3103 3105 3109 3112 3115 3119 3123 3125 3128 3131
3000 3001 2991 2986 2984 2986 2990 2991 2995 3001 3008 3015 3018 3023 3028 3031 3036 3039 3043 3046 3047 3052 3057 3062 3066 3067 3070 3074 3077 3083 3088 3090 3092 3093 3096 3099 3101 3103 3106 3110 3113 3116 3118 3122
2996 2995 2991 2984 2984 2983 2985 2986 2991 2995 3000 3007 3013 3017 3020 3023 3029 3032 3036 3040 3043 3046 3049 3052 3055 3057 3063 3066 3073 3077 3079 3081 3083 3086 3087 3089 3091 3094 3097 3101 3104 3108 3110 3113
2982 2984 2984 2982 2980 2979 2982 2986 2989 2992 2996 3001 3006 3010 3015 3019 3023 3027 3029 3034 3038 3042 3045 3047 3049 3051 3054 3059 3064 3067 3069 3071 3073 3076 3078 3079 3082 3084 3087 3091 3095 3098 3099 3102
2974 2978 2977 2979 2978 2977 2981 2987 2989 2990 2993 2997 3002 3007 3011 3015 3019 3022 3025 3028 3032 3035 3039 3041 3042 3044 3046 3051 3052 3051 3054 3060 3061 3063 3065 3068 3072 3076 3076 3080 3084 3086 3089 3092
2964 2969 2971 2976 2975 2976 2982 2985 2988 2988 2990 2993 3000 3005 3008 3011 3013 3016 3018 3021 3024 3027 3031 3035 3036 3036 3036 3037 3038 3040 3043 3042 3046 3049 3051 3053 3055 3059 3063 3063 3069 3074 3077 3079
2956 2961 2964 2970 2972 2977 2981 2983 2985 2986 2989 2991 2996 3002 3004 3006 3009 3011 3014 3016 3018 3019 3021 3023 3025 3025 3025 3024 3024 3025 3026 3028 3029 3033 3036 3039 3043 3046 3049 3054 3060 3059 3061 3056
2953 2958 2962 2967 2971 2958 2970 2980 2980 2984 2987 2991 2994 2997 3000 3001 3004 3006 3009 3011 3012 3011 3012 3012 3009 3010 3008 3007 3009 3005 3008 3009 3010 3014 3019 3026 3028 3030 3029 3034 3040 3049 3051 3060
2944 2950 2955 2962 2967 2974 2975 2977 2980 2982 2984 2986 2990 2992 2995 2997 3000 3002 3003 3003 3002 3002 3000 3001 2998 2994 2992 2987 2980 2982 2983 2986 2991 2996 3003 3003 3012 3020 3022 3027 3028 3040 3048 3044
2933 2945 2951 2955 2967 2968 2972 2976 2976 2978 2981 2981 2985 2990 2992 2993 2994 2997 2998 2996 2995 2995 2994 2991 2989 2985 2979 2971 2956 2937 2949 2962 2969 2970 2969 2970 2992 2987 3018 3024 3023 3029 3047 3051
2935 2946 2950 2953 2963 2974 2968 2970 2976 2980 2980 2979 2982 2986 2987 2990 2992 2992 2991 2993 2992 2993 2990 2988 2985 2980 2974 2967 2956 2944 2944 2943 2956 2970 2962 2984 2989 2995 3011 3023 3024 3032 3043 3047
2938 2948 2952 2957 2963 2967 2971 2976 2977 2972 2975 2979 2982 2983 2988 2989 2988 2987 2991 2992 2991 2989 2987 2987 2986 2984 2983 2978 2973 2969 2972 2977 2984 2985 2985 2988 2987 2997 3012 3022 3027 3029 3038 3044
2946 2949 2951 2956 2965 2968 2971 2974 2973 2975 2979 2980 2980 2987 2988 2990 2988 2989 2991 2990 2990 2986 2988 2986 2985 2987 2988 2985 2985 2983 2984 2984 2987 2988 2988 2994 3000 3006 3014 3018 3023 3025 3032 3038
2948 2950 2955 2960 2965 2968 2973 2975 2975 2978 2980 2978 2982 2985 2985 2985 2984 2986 2988 2987 2985 2984 2985 2985 2988 2989 2989 2988 2988 2988 2989 2991 2993 2995 2997 2997 3002 3008 3015 3019 3020 3021 3027 3030
2954 2958 2961 2965 2969 2974 2977 2980 2981 2979 2979 2981 2982 2983 2983 2983 2984 2984 2983 2982 2981 2981 2982 2983 2986 2986 2987 2988 2989 2991 2989 2989 2991 2991 2994 2999 3003 3003 3006 3008 3010 3015 3020 3026
2962 2966 2969 2971 2977 2979 2977 2979 2982 2983 2984 2985 2986 2986 2987 2984 2984 2985 2984 2982 2981 2981 2981 2983 2984 2984 2984 2985 2986 2987 2989 2990 2991 2994 2996 2997 2998 3000 3003 3004 3008 3012 3016 3021
2973 2975 2974 2975 2978 2981 2982 2985 2987 2988 2990 2990 2990 2989 2988 2987 2988 2987 2986 2985 2984 2983 2981 2983 2984 2983 2983 2983 2983 2985 2985 2987 2987 2989 2990 2991 2994 2997 2996 2997 3003 3009 3012 3016
2985 2985 2986 2987 2987 2989 2991 2992 2993 2995 2993 2994 2995 2993 2993 2993 2992 2989 2987 2986 2986 2984 2985 2985 2983 2982 2982 2980 2981 2983 2983 2984 2984 2985 2986 2986 2987 2989 2991 2995 2998 3004 3008 3011
2994 2994 2995 2995 2996 2996 2997 2997 2998 2997 2997 2998 2996 2995 2994 2993 2993 2992 2990 2989 2988 2988 2988 2987 2987 2985 2983 2981 2980 2981 2983 2987 2987 2986 2986 2986 2986 2991 2991 2993 2997 2999 3004 3006
3002 3002 3002 3002 3002 3001 3001 3001 3000 3000 3001 3001 3000 2999 2997 2996 2995 2994 2993 2992 2992 2991 2990 2988 2987 2984 2982 2980 2981 2984 2985 2987 2987 2988 2987 2987 2989 2990 2990 2992 2994 2998 2997 3001
3007 3004 3004 3004 3004 3003 3001 3001 3001 3000 3000 2999 2998 2997 2998 2997 2995 2995 2993 2992 2991 2990 2988 2987 2986 2985 2985 2984 2983 2982 2983 2984 2984 2986 2986 2987 2986 2989 2989 2991 2993 2996 2995 2995
3010 3008 3006 3005 3003 3001 3000 2999 2999 2998 2996 2996 2996 2996 2995 2995 2995 2995 2992 2990 2987 2985 2983 2982 2982 2982 2983 2983 2984 2986 2988 2988 2986 2983 2981 2981 2981 2981 2982 2983 2986 2987 2989 2991